Find Starlink 4408

NORAD ID: 53206 Int'l Des: 2022-084 Owner: SPXS Country: US Constellation: starlink operational
LEOCIRCULARRETROGRADESSO

現在のビュー

3D地球を読み込み中...

About Starlink 4408

Starlink 4408 (NORAD 53206) is a starlink constellation satellite (v1.5) launched Jul 22, 2022 by SPXS of US. It operates in LEO, CIRCULAR, RETROGRADE, SSO orbit with a mass of 297.00 kg.

Starlink 4408について

説明を読み込み中...

次回通過

Passes for default location (London). Set your location on the main map for personalized predictions.

高度履歴

Loading altitude history...

軌道要素

1 53206U 22084T 26164.28778932 -.00001619 00000-0 -10820-3 0 9990
2 53206 97.3634 224.5787 0002244 97.7539 262.3943 15.05657852213769
Epoch: Jun 13, 2026 • Age: 8 hours

現在のステータス

高度 560.2 km
速度 7.59 km/s
衛星直下点 70.83°N, 65.73°W
打ち上げ日 Jul 22, 2022
運用期間 3.8 years
タイプ internet

技術仕様

分類 Payload
質量 297.00 kg
乾燥質量 275.00 kg
総質量 297.00 kg
長さ 0.20 m
直径 2.80 m
スパン 9.00 m
形状 Box + pan
製造者 SPXS
バスタイプ Starlink
フェーズステータス In Orbit
所有者/国 SPXS/US

Most Searched